[[{"header":{"parameterUnit":"m.s-1","parameterCategory":1,"la1":30.2991,"la2":30.254,"lo1":-89.0895,"lo2":-89.0444,"dy":0.0017,"dx":0.0017,"nx":28,"ny":28,"refTime":"2025-12-12T09:00:00:Z","depth":0,"parameterNumber":2,"parameterNumberName":"U-component_of_WINDS"},"data":[0,0,0,0,0,0,0,0,0,0,0,0,0,0,0,0,0,0,0,0,0,0,0,0,0,0,0,0,0,0,0,0,0,0,0,0,0,0,0,0,0,0,0,0,0,0,0,0,0,0,0,0,0,0,0,0,0,0,-2.099,-2.0991,0,-2.1055,-2.1056,-2.1057,-2.1022,-2.102,-2.1019,-2.1017,-2.1087,-2.1091,-2.1094,0,0,0,0,0,0,0,0,0,0,0,0,0,-2.084,-2.0843,-2.099,-2.0991,-2.0992,-2.1055,-2.1056,-2.1057,-2.1022,-2.102,-2.1018,-2.1016,-2.1086,-2.109,-2.1095,0,0,0,0,0,0,0,0,0,0,0,0,0,-2.0905,-2.0844,-2.099,-2.0982,-2.0982,-2.1055,-2.1056,-2.1057,-2.1023,-2.102,-2.1018,-2.1015,-2.1085,-2.109,-2.1095,-2.1181,0,0,-2.1111,-2.1113,0,0,0,0,0,0,0,0,-2.0902,-2.0911,-2.0983,-2.0983,-2.0983,-2.1028,-2.1029,-2.1099,-2.1023,-2.1008,-2.1017,-2.1014,-2.107,-2.1076,-2.1094,-2.1184,-2.1187,-2.1112,-2.1115,-2.1117,-2.1119,0,0,0,0,0,0,0,-2.0897,-2.0908,-2.1016,-2.0984,-2.0984,-2.0977,-2.0983,-2.1042,-2.1053,-2.1009,-2.1006,-2.1014,-2.107,-2.1089,-2.1096,-2.1188,-2.1112,-2.1116,-2.1119,-2.1122,-2.1352,-2.1355,0,0,0,0,0,0,-2.0893,-2.0904,-2.1014,-2.1018,-2.0935,-2.0981,-2.0989,-2.1016,-2.1052,-2.1055,-2.1016,-2.1012,-2.1082,-2.109,-2.1098,-2.1201,-2.1117,-2.1122,-2.1125,-2.1349,-2.1352,-2.1356,0,0,0,0,0,0,-2.089,-2.0903,-2.1011,-2.0961,-2.0974,-2.0987,-2.1018,-2.1019,-2.1038,-2.1058,-2.106,-2.1034,-2.108,-2.1091,-2.116,-2.1203,-2.1124,-2.1129,-2.1345,-2.135,-2.1354,-2.1408,0,0,0,0,0,0,-2.0885,-2.0902,-2.0934,-2.0962,-2.0977,-2.1072,-2.1021,-2.1022,-2.1047,-2.1043,-2.1075,-2.1078,-2.1079,-2.1153,-2.1165,-2.1209,-2.1133,-2.1342,-2.1347,-2.1353,-2.1402,-2.1413,-2.1423,0,0,0,0,0,-2.088,-2.0947,-2.0935,-2.0949,-2.1016,-2.1074,-2.1083,-2.1081,-2.1051,-2.1084,-2.1096,-2.1077,-2.1196,-2.116,-2.1174,-2.122,-2.1339,-2.1346,-2.1352,-2.1397,-2.1411,-2.1423,0,0,0,0,0,0,-2.0925,-2.095,-2.0938,-2.1015,-2.1043,-2.1068,-2.1109,-2.1095,-2.1132,-2.1127,-2.1124,-2.1131,-2.1204,-2.1219,-2.1178,-2.1305,-2.1263,-2.1273,-2.1292,-2.1306,-2.1316,-2.1311,-2.1138,0,0,0,0,0,-2.0944,-2.0987,-2.1007,-2.1074,-2.1088,-2.1096,-2.1121,-2.1117,-2.1146,-2.1158,-2.1175,-2.1205,-2.1249,-2.1278,-2.1319,-2.1404,-2.1411,-2.1442,-2.1453,-2.1461,-2.147,-2.1516,-2.1531,-2.1377,-2.1377,-2.1377,0,0,-2.0983,-2.1002,-2.103,-2.1083,-2.1104,-2.115,-2.1106,-2.1157,-2.1192,-2.1166,-2.1232,-2.1246,-2.1279,-2.1357,-2.1392,-2.1371,-2.1514,-2.147,-2.1476,-2.148,-2.1525,-2.1539,-2.1552,-2.1382,-2.1381,-2.138,0,0,-2.1079,-2.1097,-2.1155,-2.1176,-2.1207,-2.1212,-2.1226,-2.1254,-2.1262,-2.1328,-2.131,-2.1352,-2.1427,-2.1452,-2.1474,-2.1579,-2.1563,-2.1592,-2.1647,-2.1693,-2.1705,-2.1715,-2.1754,-2.1767,-2.1601,-2.1601,-2.1601,0,-2.1124,-2.1192,-2.1186,-2.1238,-2.1263,-2.124,-2.1299,-2.132,-2.1364,-2.1382,-2.1358,-2.1453,-2.1474,-2.1557,-2.1582,-2.1601,-2.1618,-2.1589,-2.1703,-2.1714,-2.1724,-2.176,-2.1774,-2.1605,-2.1604,-2.1604,-2.1603,0,-2.1247,-2.1294,-2.1337,-2.1378,-2.1407,-2.1463,-2.1467,-2.1497,-2.1491,-2.1499,-2.1567,-2.1591,-2.1637,-2.1656,-2.1651,-2.1739,-2.1726,-2.1703,-2.1661,-2.1742,-2.1776,-2.179,-2.1609,-2.1608,-2.1607,-2.1606,0,0,-2.1373,-2.141,-2.1426,-2.1445,-2.1478,-2.1515,-2.157,-2.1613,-2.164,-2.1671,-2.1718,-2.1782,-2.1761,-2.1786,-2.1783,-2.1823,-2.1906,-2.1795,-2.1796,-2.1816,-2.2005,-2.2023,-2.2039,-2.1895,-2.1898,-2.19,-2.2003,0,-2.1471,-2.1565,-2.1562,-2.165,-2.1694,-2.1673,-2.1721,-2.1747,-2.1756,-2.1796,-2.1807,-2.1853,-2.1821,-2.1836,-2.1874,-2.1887,-2.1944,-2.188,-2.194,-2.1942,-2.1933,-2.2057,-2.2076,-2.2171,-2.2016,-2.2018,-2.202,0,-2.1598,-2.1632,-2.1725,-2.1751,-2.177,-2.1812,-2.1853,-2.189,-2.192,-2.1924,-2.1952,-2.1943,-2.2,-2.1956,-2.2035,-2.1991,-2.2016,-2.2026,-2.203,-2.2036,-2.1986,-2.2067,-2.2202,-2.2217,-2.2041,-2.2039,-2.2038,0,-2.1681,-2.1751,-2.1815,-2.1832,-2.1864,-2.1895,-2.191,-2.1937,-2.1963,-2.1999,-2.2016,-2.2059,-2.2082,-2.2116,-2.2119,-2.2086,-2.2199,-2.2155,-2.2205,-2.2205,-2.223,-2.2228,-2.2371,-2.2245,-2.2244,-2.2244,-2.2244,0,-2.1792,-2.185,-2.1853,-2.1893,-2.1957,-2.1953,-2.2017,-2.203,-2.2054,-2.2097,-2.2081,-2.2122,-2.2123,-2.2165,-2.2168,-2.2234,-2.2244,-2.225,-2.225,-2.2252,-2.2251,-2.2268,-2.2262,-2.2248,-2.2247,-2.2246,-2.2246,0,-2.1896,-2.1901,-2.1969,-2.1994,-2.2002,-2.2048,-2.207,-2.2108,-2.2116,-2.217,-2.2183,-2.2195,-2.2244,-2.2249,-2.2307,-2.2309,-2.2388,-2.2381,-2.2377,-2.2377,-2.2426,-2.2422,-2.2586,-2.2608,-2.2466,-2.2468,-2.2469,0,-2.1967,-2.201,-2.2039,-2.2066,-2.2083,-2.2126,-2.2153,-2.2151,-2.218,-2.2217,-2.2252,-2.2298,-2.2336,-2.2415,-2.243,-2.2474,-2.2468,-2.2522,-2.2475,-2.2475,-2.247,-2.2467,-2.2472,-2.2532,-2.2534,-2.2535,-2.2536,0,-2.2091,-2.2091,-2.213,-2.2169,-2.2201,-2.2233,-2.2262,-2.2286,-2.2288,-2.2321,-2.237,-2.2399,-2.2457,-2.2504,-2.2547,-2.2565,-2.2552,-2.2551,-2.2565,-2.2567,-2.2563,-2.2567,-2.2403,-2.2547,-2.2546,-2.2545,-2.2544,-2.2544,-2.2181,-2.2219,-2.2245,-2.2289,-2.2311,-2.2339,-2.2376,-2.2388,-2.2428,-2.2474,-2.2471,-2.2525,-2.2554,-2.2611,-2.2631,-2.2674,-2.2657,-2.2677,-2.2682,-2.2687,-2.2692,-2.2556,-2.2682,-2.2682,-2.2682,-2.2681,-2.2681,0,-2.2306,-2.2321,-2.2361,-2.2402,-2.2437,-2.242,-2.2452,-2.2482,-2.253,-2.2557,-2.2594,-2.2651,-2.2697,-2.2715,-2.276,-2.2791,-2.2786,-2.2803,-2.2801,-2.2806,-2.2705,-2.2689,-2.2807,-2.2807,-2.2806,-2.2806,-2.2806,-2.2806,-2.2374,-2.2438,-2.2441,-2.2515,-2.2531,-2.2583,-2.2603,-2.2629,-2.2651,-2.2714,-2.2752,-2.2763,-2.2787,-2.2834,-2.2876,-2.288,-2.2898,-2.2917,-2.2919,-2.2825,-2.2813,-2.2801,-2.2785,-2.2921,-2.2921,-2.3016,-2.3017,-2.3017]},{"header":{"parameterUnit":"m.s-1","parameterCategory":1,"la1":30.2991,"la2":30.254,"lo1":-89.0895,"lo2":-89.0444,"dy":0.0017,"dx":0.0017,"nx":28,"ny":28,"refTime":"2025-12-12T09:00:00:Z","depth":0,"parameterNumber":3,"parameterNumberName":"V-component_of_WINDS"},"data":[0,0,0,0,0,0,0,0,0,0,0,0,0,0,0,0,0,0,0,0,0,0,0,0,0,0,0,0,0,0,0,0,0,0,0,0,0,0,0,0,0,0,0,0,0,0,0,0,0,0,0,0,0,0,0,0,0,0,0.0478,0.0478,0,0.0473,0.0473,0.0473,0.048,0.048,0.048,0.048,0.0475,0.0475,0.0475,0,0,0,0,0,0,0,0,0,0,0,0,0,0.0495,0.0495,0.0478,0.0478,0.0478,0.0473,0.0473,0.0473,0.0479,0.048,0.048,0.048,0.0476,0.0475,0.0475,0,0,0,0,0,0,0,0,0,0,0,0,0,0.0489,0.0495,0.0478,0.0481,0.0481,0.0473,0.0473,0.0473,0.0479,0.048,0.048,0.048,0.0476,0.0475,0.0475,0.0464,0,0,0.0473,0.0473,0,0,0,0,0,0,0,0,0.0489,0.0488,0.048,0.048,0.0481,0.0477,0.0477,0.047,0.0479,0.048,0.048,0.0481,0.0476,0.0475,0.0474,0.0464,0.0464,0.0473,0.0473,0.0473,0.0472,0,0,0,0,0,0,0,0.049,0.0488,0.0476,0.048,0.048,0.0483,0.0482,0.0476,0.0476,0.048,0.048,0.048,0.0476,0.0474,0.0474,0.0464,0.0473,0.0473,0.0472,0.0472,0.0447,0.0447,0,0,0,0,0,0,0.049,0.0489,0.0476,0.0476,0.0486,0.0482,0.0481,0.0478,0.0476,0.0476,0.0479,0.048,0.0475,0.0474,0.0473,0.0462,0.0473,0.0472,0.0472,0.0447,0.0447,0.0447,0,0,0,0,0,0,0.049,0.0488,0.0476,0.0482,0.0481,0.0481,0.0477,0.0478,0.0476,0.0476,0.0476,0.0477,0.0475,0.0474,0.0467,0.0462,0.0472,0.0471,0.0448,0.0447,0.0447,0.0438,0,0,0,0,0,0,0.049,0.0488,0.0484,0.0482,0.0481,0.0469,0.0477,0.0477,0.0475,0.0476,0.0474,0.0474,0.0475,0.0468,0.0466,0.0461,0.0471,0.0448,0.0448,0.0447,0.0439,0.0438,0.0436,0,0,0,0,0,0.0491,0.0482,0.0484,0.0482,0.0475,0.0469,0.0468,0.047,0.0474,0.047,0.047,0.0474,0.0463,0.0467,0.0465,0.046,0.0449,0.0448,0.0447,0.044,0.0438,0.0436,0,0,0,0,0,0,0.0482,0.0481,0.0484,0.0473,0.0471,0.047,0.0465,0.0468,0.0465,0.0465,0.0468,0.0468,0.046,0.0459,0.0464,0.0451,0.0456,0.0455,0.0451,0.045,0.0448,0.0449,0.047,0,0,0,0,0,0.0479,0.0474,0.0474,0.0465,0.0464,0.0465,0.0462,0.0464,0.0462,0.0461,0.046,0.0459,0.0455,0.0452,0.0449,0.0439,0.0439,0.0435,0.0434,0.0433,0.0432,0.0428,0.0426,0.0444,0.0444,0.0444,0,0,0.0473,0.0472,0.0468,0.0463,0.0462,0.0457,0.0464,0.0458,0.0455,0.046,0.0453,0.0453,0.0451,0.0443,0.044,0.0442,0.0427,0.0432,0.0431,0.043,0.0427,0.0425,0.0424,0.0443,0.0444,0.0444,0,0,0.0459,0.0457,0.045,0.0449,0.0447,0.0448,0.0446,0.0445,0.0445,0.0438,0.0443,0.0439,0.0432,0.0431,0.0429,0.0417,0.042,0.0416,0.0409,0.0405,0.0403,0.0402,0.0398,0.0397,0.0415,0.0415,0.0415,0,0.0451,0.0444,0.0446,0.0441,0.0439,0.0444,0.0437,0.0436,0.0433,0.0432,0.0435,0.0427,0.0426,0.0419,0.0416,0.0414,0.0413,0.0416,0.0403,0.0402,0.0401,0.0398,0.0396,0.0414,0.0414,0.0414,0.0414,0,0.0435,0.043,0.0425,0.0422,0.042,0.0413,0.0416,0.0413,0.0415,0.0416,0.041,0.0409,0.0406,0.0404,0.0406,0.0397,0.0399,0.0403,0.0409,0.0399,0.0396,0.0394,0.0413,0.0414,0.0414,0.0414,0,0,0.0415,0.0414,0.0412,0.0412,0.0411,0.0407,0.0402,0.0399,0.0397,0.0395,0.0391,0.0386,0.039,0.0388,0.039,0.0387,0.0378,0.0391,0.0391,0.0389,0.0369,0.0367,0.0365,0.038,0.038,0.038,0.037,0,0.0401,0.0392,0.0395,0.0385,0.0382,0.0387,0.0383,0.0382,0.0383,0.038,0.0381,0.0378,0.0382,0.0382,0.0379,0.038,0.0374,0.0381,0.0377,0.0377,0.0378,0.0363,0.036,0.0351,0.0368,0.0368,0.0368,0,0.0384,0.0382,0.0373,0.0373,0.0372,0.0368,0.0366,0.0363,0.0363,0.0364,0.0363,0.0366,0.0362,0.0368,0.0362,0.0366,0.0366,0.0366,0.0366,0.0366,0.0372,0.0363,0.0347,0.0346,0.0366,0.0366,0.0366,0,0.0371,0.0366,0.036,0.0359,0.036,0.0357,0.0357,0.0357,0.0356,0.0354,0.0354,0.0352,0.0351,0.035,0.0353,0.0357,0.0347,0.0353,0.0348,0.0348,0.0346,0.0346,0.033,0.0345,0.0345,0.0345,0.0345,0,0.0356,0.035,0.0354,0.0351,0.0345,0.0348,0.0343,0.0343,0.0344,0.0341,0.0345,0.0343,0.0347,0.0344,0.0347,0.0342,0.0342,0.0343,0.0344,0.0343,0.0343,0.0342,0.0343,0.0345,0.0345,0.0345,0.0345,0,0.034,0.0343,0.0337,0.0338,0.0338,0.0334,0.0336,0.0333,0.0334,0.0331,0.033,0.0333,0.0331,0.0334,0.0332,0.0333,0.0328,0.0329,0.0328,0.0328,0.0324,0.0325,0.0307,0.0306,0.0321,0.0321,0.0321,0,0.033,0.0326,0.0327,0.0326,0.0326,0.0323,0.0322,0.0326,0.0325,0.0325,0.0322,0.0321,0.0319,0.0316,0.0318,0.0317,0.0319,0.0313,0.0319,0.0318,0.0319,0.032,0.032,0.0312,0.0311,0.0311,0.0311,0,0.0313,0.0315,0.0313,0.0312,0.0311,0.031,0.0309,0.0308,0.0312,0.0311,0.0309,0.0308,0.0306,0.0305,0.0305,0.0305,0.0309,0.031,0.0308,0.0308,0.0307,0.0308,0.0325,0.031,0.031,0.031,0.031,0.031,0.03,0.0298,0.0298,0.0297,0.0297,0.0297,0.0294,0.0296,0.0295,0.0294,0.0296,0.0294,0.0295,0.0295,0.0296,0.0294,0.0297,0.0295,0.0295,0.0294,0.0294,0.0307,0.0294,0.0294,0.0294,0.0294,0.0294,0,0.0284,0.0285,0.0283,0.0283,0.0282,0.0286,0.0286,0.0285,0.0283,0.0284,0.0283,0.0281,0.028,0.0283,0.0282,0.0281,0.0283,0.0281,0.0281,0.0281,0.0291,0.0293,0.0279,0.0279,0.0279,0.0279,0.0279,0.0279,0.0275,0.0271,0.0273,0.0269,0.0271,0.0269,0.0269,0.0269,0.027,0.0268,0.0267,0.0269,0.027,0.027,0.027,0.0271,0.027,0.0268,0.0269,0.0279,0.028,0.0282,0.0283,0.0268,0.0268,0.0259,0.0259,0.0259]}]]